Retour au catalogue

STARLINK-36060

ActifCommunicationsVLEO
NORAD 67090·PAYLOAD·🇺🇸 United States

Lancé Dec 14, 2025 depuis Vandenberg Space Force Base

Loading…

Prochains Passages (prochaines 24 heures)

TLE

FraisSource: CelesTrak SupGP

Époque: Sep 14, 2026, 21:21 UTC

1 67090C 25298R   26257.89006944  .00061181  00000+0  51262-2 0  2571
2 67090  69.9998 257.4126 0003633 267.6870 239.6885 14.98306045    14

Suivez STARLINK-36060 en temps réel avec AllMySat

Download on the App Store